GW7030 Weather Reports


Display with metric or nautical units.
time (UTC)temp
F
wind
direction
speed
MPH
gust
MPH
rain 1hr
in
rain 24hr
in
rain mn
in
humidity
%
barometer
mb
20260506212018 48 107 0.0 1.0 0.00 0.00 0.00 95 1021.2
20260506211550 48 107 0.0 1.0 0.00 0.00 0.00 96 1021.3
20260506211018 48 107 0.0 1.0 0.00 0.00 0.00 95 1021.2
20260506210516 48 107 0.0 1.0 0.00 0.00 0.00 95 1021.1
20260506210128 48 107 0.0 2.0 0.00 0.00 0.00 96 1021.1
20260506205516 48 107 0.0 2.0 0.00 0.00 0.00 96 1021.1
20260506205018 48 107 0.0 2.0 0.00 0.00 0.00 96 1021.0
20260506204552 48 107 0.0 1.0 0.00 0.00 0.00 96 1021.0
20260506204016 48 107 0.0 1.0 0.00 0.00 0.00 96 1021.0
20260506203516 48 107 0.0 2.0 0.00 0.00 0.00 96 1021.0
20260506203105 48 107 0.0 2.0 0.00 0.00 0.00 96 1021.0
20260506202517 48 107 0.0 1.0 0.00 0.00 0.00 96 1021.0
20260506202017 48 107 0.0 1.0 0.00 0.00 0.00 96 1021.0
20260506201608 48 107 0.0 1.0 0.00 0.00 0.00 96 1021.0
20260506201018 48 107 0.0 1.0 0.00 0.00 0.00 96 1020.9
20260506200516 48 107 0.0 1.0 0.00 0.00 0.00 96 1020.9
20260506200152 47 107 0.0 1.0 0.00 0.00 0.00 96 1020.9
20260506195521 47 107 0.0 2.0 0.00 0.00 0.00 96 1020.8
20260506195019 48 106 0.0 2.0 0.00 0.00 0.00 96 1020.8
20260506194620 48 92 0.0 1.0 0.00 0.00 0.00 96 1020.7
20260506194017 47 92 0.0 1.0 0.00 0.00 0.00 96 1020.8
20260506193520 47 118 0.0 1.0 0.00 0.00 0.00 96 1020.8
20260506193106 47 118 0.0 1.0 0.00 0.00 0.00 96 1020.8
20260506192516 47 118 0.0 1.0 0.00 0.00 0.00 96 1020.7
20260506192017 47 118 0.0 1.0 0.00 0.00 0.00 96 1020.8
20260506191611 47 118 0.0 1.0 0.00 0.00 0.00 96 1020.8
20260506191018 47 118 0.0 1.0 0.00 0.00 0.00 96 1020.7
20260506190528 47 118 0.0 1.0 0.00 0.00 0.00 96 1020.6
20260506190107 47 118 0.0 1.0 0.00 0.00 0.00 96 1020.6
20260506185517 47 118 0.0 1.0 0.00 0.00 0.00 96 1020.4
20260506185020 47 118 0.0 2.0 0.00 0.00 0.00 96 1020.4
20260506184602 47 118 0.0 2.0 0.00 0.00 0.00 96 1020.4
20260506184020 47 90 0.0 2.0 0.00 0.00 0.00 96 1020.4
20260506183518 47 90 1.0 2.0 0.00 0.00 0.00 96 1020.3
20260506183102 47 72 0.0 1.0 0.00 0.00 0.00 96 1020.3
20260506182516 47 72 0.0 1.0 0.00 0.00 0.00 96 1020.3
20260506182018 47 121 0.0 1.0 0.00 0.00 0.00 96 1020.3
20260506181955 47 121 0.0 1.0 0.00 0.00 0.00 96 1020.2
20260506181017 47 121 0.0 2.0 0.00 0.00 0.00 96 1020.3
20260506180525 47 121 0.0 2.0 0.00 0.00 0.00 96 1020.4
20260506180446 47 121 0.0 2.0 0.00 0.00 0.00 96 1020.3
20260506175515 47 121 0.0 2.0 0.00 0.00 0.00 96 1020.3
20260506175017 47 106 0.0 1.0 0.00 0.00 0.00 96 1020.1
20260506174547 47 106 0.0 1.0 0.00 0.00 0.00 96 1020.2
20260506174015 47 106 0.0 1.0 0.00 0.00 0.00 96 1020.1
20260506173516 47 106 0.0 1.0 0.00 0.00 0.00 96 1020.2
20260506173102 47 106 0.0 1.0 0.00 0.00 0.00 96 1020.2
20260506172514 47 106 0.0 2.0 0.00 0.00 0.00 96 1020.1
20260506172030 47 106 0.0 2.0 0.00 0.00 0.00 96 1020.1
20260506172026 47 106 0.0 2.0 0.00 0.00 0.00 96 1019.9
20260506171019 46 106 0.0 1.0 0.00 0.00 0.00 96 1019.9
20260506170640 46 106 0.0 1.0 0.00 0.00 0.00 96 1020.0
20260506170048 47 106 0.0 1.0 0.00 0.00 0.00 96 1019.9
20260506165514 47 106 0.0 1.0 0.00 0.00 0.00 96 1020.0
20260506165016 47 106 0.0 2.0 0.00 0.00 0.00 96 1020.0
20260506164539 47 106 0.0 2.0 0.00 0.00 0.00 96 1019.9
20260506164017 47 97 0.0 2.0 0.00 0.00 0.00 96 1019.9
20260506163513 46 97 0.0 2.0 0.00 0.00 0.00 96 1019.9
20260506163050 46 96 0.0 1.0 0.00 0.00 0.00 96 1019.9
20260506162515 46 96 0.0 2.0 0.00 0.00 0.00 96 1020.0
20260506162016 46 95 0.0 2.0 0.00 0.00 0.00 96 1019.9
20260506161946 46 71 0.0 1.0 0.00 0.00 0.00 96 1020.1
20260506161019 46 71 0.0 1.0 0.00 0.00 0.00 96 1020.0
20260506160524 46 71 0.0 1.0 0.00 0.00 0.00 96 1020.1
20260506160046 46 71 0.0 1.0 0.00 0.00 0.00 96 1019.9
20260506155518 46 71 0.0 1.0 0.00 0.00 0.00 96 1019.8
20260506155014 46 71 0.0 1.0 0.00 0.00 0.00 96 1019.8
20260506154544 46 71 0.0 1.0 0.00 0.00 0.00 96 1019.9
20260506154021 46 71 0.0 1.0 0.00 0.00 0.00 95 1019.8
20260506153514 46 71 0.0 1.0 0.00 0.00 0.00 96 1019.8
20260506153045 46 71 0.0 1.0 0.00 0.00 0.00 96 1019.9
20260506152518 46 71 0.0 1.0 0.00 0.00 0.00 96 1019.9
20260506152016 46 67 0.0 1.0 0.00 0.00 0.00 96 1019.9
20260506151549 45 67 0.0 1.0 0.00 0.00 0.00 95 1019.7
20260506151014 46 67 0.0 1.0 0.00 0.00 0.00 95 1019.8
20260506150527 46 67 0.0 1.0 0.00 0.00 0.00 96 1019.7
20260506150038 45 67 0.0 1.0 0.00 0.00 0.00 95 1019.7
20260506145515 45 67 0.0 1.0 0.00 0.00 0.00 96 1019.6
20260506145017 45 67 0.0 1.0 0.00 0.00 0.00 95 1019.7
20260506144547 45 67 0.0 1.0 0.00 0.00 0.00 95 1019.6
20260506144015 45 67 0.0 1.0 0.00 0.00 0.00 95 1019.7
20260506143516 45 67 0.0 1.0 0.00 0.00 0.00 95 1019.7
20260506143052 45 67 0.0 1.0 0.00 0.00 0.00 95 1019.8
20260506142516 45 67 0.0 1.0 0.00 0.00 0.00 95 1019.6
20260506142015 45 67 0.0 1.0 0.00 0.00 0.00 95 1019.5
20260506141536 45 67 0.0 1.0 0.00 0.00 0.00 95 1019.5
20260506141015 45 67 0.0 0.0 0.00 0.00 0.00 95 1019.4
20260506140516 45 67 0.0 1.0 0.00 0.00 0.00 95 1019.4
20260506140049 45 67 0.0 1.0 0.00 0.00 0.00 95 1019.4
20260506135519 45 67 0.0 1.0 0.00 0.00 0.00 95 1019.2
20260506135024 45 67 0.0 1.0 0.00 0.00 0.00 95 1019.3
20260506134828 45 66 0.0 0.0 0.00 0.00 0.00 95 1019.1
20260506134015 45 66 0.0 0.0 0.00 0.00 0.00 95 1019.1
20260506133514 45 66 0.0 0.0 0.00 0.00 0.00 95 1019.1
20260506133053 44 66 0.0 0.0 0.00 0.00 0.00 94 1019.1
20260506132515 45 66 0.0 0.0 0.00 0.00 0.00 94 1019.1
20260506132011 45 66 0.0 0.0 0.00 0.00 0.00 95 1019.1
20260506131949 45 66 0.0 0.0 0.00 0.00 0.00 94 1019.0
20260506131019 45 66 0.0 0.0 0.00 0.00 0.00 94 1019.0
20260506130528 45 66 0.0 0.0 0.00 0.00 0.00 94 1019.1
20260506130056 45 66 0.0 0.0 0.00 0.00 0.00 94 1018.9
20260506125525 45 66 0.0 0.0 0.00 0.00 0.00 94 1019.0
20260506125015 45 66 0.0 0.0 0.00 0.00 0.00 94 1018.9
20260506124554 45 66 0.0 1.0 0.00 0.00 0.00 94 1018.9
20260506124016 45 60 0.0 1.0 0.00 0.00 0.00 93 1018.9
20260506123516 45 60 0.0 1.0 0.00 0.00 0.00 92 1018.8
20260506123049 46 60 0.0 0.0 0.00 0.00 0.00 92 1018.7
20260506122514 46 60 0.0 0.0 0.00 0.00 0.00 92 1018.7
20260506122014 46 60 0.0 1.0 0.00 0.00 0.00 91 1018.7
20260506121549 47 60 0.0 1.0 0.00 0.00 0.00 90 1018.7
20260506121016 47 60 0.0 0.0 0.00 0.00 0.00 89 1018.9
20260506120516 48 60 0.0 0.0 0.00 0.00 0.00 89 1018.9
20260506120054 48 60 0.0 0.0 0.00 0.00 0.00 89 1018.9
20260506115516 49 60 0.0 0.0 0.00 0.00 0.00 90 1018.9
20260506115014 49 60 0.0 0.0 0.00 0.00 0.00 90 1018.8
20260506114554 49 60 0.0 0.0 0.00 0.00 0.00 91 1018.7
20260506114015 49 60 0.0 0.0 0.00 0.00 0.00 91 1018.8
20260506113650 49 60 0.0 0.0 0.00 0.00 0.00 91 1018.7
20260506113647 50 60 0.0 0.0 0.00 0.00 0.00 92 1018.7
20260506112519 50 60 0.0 0.0 0.00 0.00 0.00 92 1018.7
20260506112016 50 60 0.0 0.0 0.00 0.00 0.00 92 1018.6
20260506111610 50 60 0.0 0.0 0.00 0.00 0.00 92 1018.7
20260506111015 49 60 0.0 0.0 0.00 0.00 0.00 92 1018.6
20260506110523 49 60 0.0 0.0 0.00 0.00 0.00 92 1018.6
20260506110053 49 60 0.0 0.0 0.00 0.00 0.00 92 1018.7
20260506105520 49 60 0.0 0.0 0.00 0.00 0.00 92 1018.5
20260506105013 50 60 0.0 0.0 0.00 0.00 0.00 91 1018.6
20260506104547 50 60 0.0 0.0 0.00 0.00 0.00 92 1018.6
20260506104016 50 60 0.0 0.0 0.00 0.00 0.00 91 1018.6
20260506103517 50 60 0.0 0.0 0.00 0.00 0.00 91 1018.6
20260506103055 50 60 0.0 0.0 0.00 0.00 0.00 91 1018.6
20260506102516 50 60 0.0 0.0 0.00 0.00 0.00 91 1018.6
20260506102016 50 60 0.0 0.0 0.00 0.00 0.00 91 1018.6
20260506101559 50 60 0.0 0.0 0.00 0.00 0.00 91 1018.5
20260506101014 50 60 0.0 0.0 0.00 0.00 0.00 91 1018.5
20260506100513 50 60 0.0 0.0 0.00 0.00 0.00 91 1018.6
20260506100111 50 60 0.0 0.0 0.00 0.00 0.00 91 1018.5
20260506095514 50 60 0.0 0.0 0.00 0.00 0.00 91 1018.5
20260506095017 50 60 0.0 0.0 0.00 0.00 0.00 91 1018.5
20260506094613 50 60 0.0 0.0 0.00 0.00 0.00 91 1018.5
20260506094016 50 60 0.0 0.0 0.00 0.00 0.00 91 1018.5
20260506093516 50 60 0.0 0.0 0.00 0.00 0.00 91 1018.5
20260506093103 50 60 0.0 0.0 0.00 0.00 0.00 91 1018.5
20260506092517 50 60 0.0 0.0 0.00 0.00 0.00 91 1018.5
20260506092016 50 60 0.0 0.0 0.00 0.00 0.00 91 1018.4
20260506091558 50 60 0.0 0.0 0.00 0.00 0.00 91 1018.4
20260506091015 50 60 0.0 0.0 0.00 0.00 0.00 90 1018.4
20260506090517 50 60 0.0 0.0 0.00 0.00 0.00 90 1018.4
20260506090056 50 60 0.0 0.0 0.00 0.00 0.00 90 1018.6
20260506085518 50 60 0.0 0.0 0.00 0.00 0.00 90 1018.5
20260506085017 50 60 0.0 0.0 0.00 0.00 0.00 90 1018.5
20260506084552 50 60 0.0 0.0 0.00 0.00 0.00 90 1018.5
20260506084018 51 60 0.0 0.0 0.00 0.00 0.00 89 1018.5
20260506083517 51 60 0.0 0.0 0.00 0.00 0.00 88 1018.5
20260506083108 51 60 0.0 0.0 0.00 0.00 0.00 88 1018.5
20260506082516 51 60 0.0 0.0 0.00 0.00 0.00 87 1018.5
20260506082018 52 60 0.0 0.0 0.00 0.00 0.00 87 1018.4
20260506081552 52 60 0.0 0.0 0.00 0.00 0.00 87 1018.4
20260506081013 52 60 0.0 0.0 0.00 0.00 0.00 88 1018.3
20260506080516 52 60 0.0 0.0 0.00 0.00 0.00 88 1018.3
20260506073523 52 60 0.0 2.0 0.00 0.00 0.00 88 1018.1
20260506073058 52 60 0.0 2.0 0.00 0.00 0.00 88 1018.2
20260506072520 52 60 0.0 2.0 0.00 0.00 0.00 87 1018.1
20260506072018 52 60 0.0 2.0 0.00 0.00 0.00 88 1018.1
20260506071556 52 60 0.0 1.0 0.00 0.00 0.00 88 1018.2
20260506071017 52 60 0.0 1.0 0.00 0.00 0.00 88 1018.2
20260506070518 52 60 0.0 1.0 0.00 0.00 0.00 88 1018.2
20260506070126 52 60 0.0 1.0 0.00 0.00 0.00 88 1018.2
20260506062018 52 60 0.0 0.0 0.00 0.00 0.00 86 1018.0
20260506061610 52 60 0.0 0.0 0.00 0.00 0.00 86 1018.0
20260506061021 52 60 0.0 0.0 0.00 0.00 0.00 87 1018.0
20260506060521 52 60 0.0 0.0 0.00 0.00 0.00 87 1017.9
20260506060117 52 60 0.0 0.0 0.00 0.00 0.00 86 1017.9
20260506051024 53 60 0.0 0.0 0.00 0.00 0.00 85 1017.8
20260506050521 53 60 0.0 0.0 0.00 0.00 0.00 86 1017.8
20260506050117 53 60 0.0 0.0 0.00 0.00 0.00 85 1017.8
20260506045026 53 60 0.0 0.0 0.00 0.00 0.00 86 1017.7
20260506044546 53 60 0.0 0.0 0.00 0.00 0.00 85 1017.8
20260506044020 53 60 0.0 0.0 0.00 0.00 0.00 85 1017.8
20260506043514 54 60 0.0 0.0 0.00 0.00 0.00 85 1017.8
20260506043058 54 60 0.0 0.0 0.00 0.00 0.00 85 1017.7
20260506042514 54 60 0.0 0.0 0.00 0.00 0.00 85 1017.7
20260506042017 54 60 0.0 0.0 0.00 0.00 0.00 85 1017.7
20260506041806 54 60 0.0 0.0 0.00 0.00 0.00 85 1017.6
20260506041027 54 60 0.0 0.0 0.00 0.00 0.00 86 1017.6
20260506040519 54 60 0.0 0.0 0.00 0.00 0.00 86 1017.6
20260506040049 54 60 0.0 0.0 0.00 0.00 0.00 86 1017.6
20260506035516 54 60 0.0 0.0 0.00 0.00 0.00 85 1017.5
20260506035016 54 60 0.0 0.0 0.00 0.00 0.00 85 1017.4
20260506034551 54 60 0.0 0.0 0.00 0.00 0.00 85 1017.3
20260506034017 54 60 0.0 0.0 0.00 0.00 0.00 84 1017.3
20260506033514 54 60 0.0 0.0 0.00 0.00 0.00 84 1017.4
20260506033046 54 60 0.0 0.0 0.00 0.00 0.00 84 1017.3
20260506032516 54 60 0.0 0.0 0.00 0.00 0.00 83 1017.3
20260506032016 54 60 0.0 0.0 0.00 0.00 0.00 83 1017.2
20260506031811 54 60 0.0 0.0 0.00 0.00 0.00 83 1017.2
20260506031016 55 60 0.0 0.0 0.00 0.00 0.00 83 1017.2
20260506030518 55 60 0.0 0.0 0.00 0.00 0.00 83 1017.3
20260506030039 55 60 0.0 0.0 0.00 0.00 0.00 83 1017.2
20260506025532 55 60 0.0 0.0 0.00 0.00 0.00 82 1017.3
20260506025016 55 60 0.0 0.0 0.00 0.00 0.00 82 1017.2
20260506024605 55 60 0.0 0.0 0.00 0.00 0.00 82 1017.1
20260506024014 55 60 0.0 0.0 0.00 0.00 0.00 82 1017.1
20260506023514 55 60 0.0 0.0 0.00 0.00 0.00 82 1017.0
20260506023051 55 60 0.0 0.0 0.00 0.00 0.00 82 1017.1
20260506022514 55 60 0.0 1.0 0.00 0.00 0.00 81 1017.1
20260506022016 55 60 0.0 1.0 0.00 0.00 0.00 81 1017.1
20260506021553 56 60 0.0 1.0 0.00 0.00 0.00 81 1017.1
20260506021015 56 60 0.0 1.0 0.00 0.00 0.00 80 1017.3
20260506020515 56 60 0.0 1.0 0.00 0.00 0.00 80 1017.3
20260506020106 56 60 0.0 1.0 0.00 0.00 0.00 80 1017.3
20260506015517 56 60 0.0 1.0 0.00 0.00 0.00 80 1017.3
20260506015011 56 60 0.0 1.0 0.00 0.00 0.00 80 1017.4
20260506014622 56 60 0.0 1.0 0.00 0.00 0.00 79 1017.4
20260506014015 57 60 0.0 1.0 0.00 0.00 0.00 79 1017.4
20260506013515 57 63 0.0 1.0 0.00 0.00 0.00 78 1017.4
20260506013049 57 63 0.0 1.0 0.00 0.00 0.00 78 1017.4
20260506012515 57 63 0.0 1.0 0.00 0.00 0.00 78 1017.3
20260506012017 57 85 0.0 1.0 0.00 0.00 0.00 78 1017.3
20260506011622 57 85 0.0 1.0 0.00 0.00 0.00 78 1017.3
20260506011015 57 96 0.0 1.0 0.00 0.00 0.00 78 1017.1
20260506010517 57 96 0.0 1.0 0.00 0.00 0.00 77 1017.1
20260506010047 57 96 0.0 1.0 0.00 0.00 0.00 77 1017.3
20260506005516 58 96 0.0 2.0 0.00 0.00 0.00 77 1017.3
20260506005015 57 96 0.0 2.0 0.00 0.00 0.00 78 1017.3
20260506004558 57 96 0.0 1.0 0.00 0.00 0.00 77 1017.3
20260506004017 58 96 0.0 1.0 0.00 0.00 0.00 77 1017.2
20260506003516 58 96 0.0 1.0 0.00 0.00 0.00 77 1017.3
20260506003046 58 96 0.0 1.0 0.00 0.00 0.00 76 1017.4
20260506002518 58 96 0.0 2.0 0.00 0.00 0.00 76 1017.3
20260506002017 58 96 0.0 2.0 0.00 0.00 0.00 77 1017.5
20260506001613 58 87 0.0 2.0 0.00 0.00 0.00 76 1017.4
20260506001021 58 87 0.0 2.0 0.00 0.00 0.00 76 1017.3
20260506000521 58 93 0.0 1.0 0.00 0.00 0.00 75 1017.4
20260506000123 59 140 0.0 1.0 0.00 0.00 0.00 75 1017.4
20260505235517 59 140 0.0 3.0 0.00 0.00 0.00 74 1017.4
20260505235016 59 140 0.0 3.0 0.00 0.00 0.00 73 1017.5
20260505234611 59 144 0.0 3.0 0.00 0.00 0.00 74 1017.6
20260505234016 59 121 0.0 2.0 0.00 0.00 0.00 73 1017.6
20260505233516 59 121 0.0 2.0 0.00 0.00 0.00 74 1017.6
20260505233110 59 121 0.0 2.0 0.00 0.00 0.00 75 1017.6
20260505232522 59 121 0.0 2.0 0.00 0.00 0.00 75 1017.7
20260505232016 59 121 0.0 2.0 0.00 0.00 0.00 73 1017.7
20260505231609 60 121 0.0 2.0 0.00 0.00 0.00 73 1017.7
20260505231019 60 121 0.0 2.0 0.00 0.00 0.00 72 1017.8
20260505230518 60 132 0.0 3.0 0.00 0.00 0.00 73 1017.8
20260505230116 61 132 1.0 3.0 0.00 0.00 0.00 71 1017.9
20260505225523 61 135 0.0 3.0 0.00 0.00 0.00 71 1017.8
20260505225016 61 135 1.0 3.0 0.00 0.00 0.00 71 1017.7
20260505224605 61 103 0.0 3.0 0.00 0.00 0.00 71 1017.8
20260505224015 61 116 1.0 3.0 0.00 0.00 0.00 70 1017.8
20260505223519 61 114 1.0 3.0 0.00 0.00 0.00 70 1017.7
20260505223105 62 140 1.0 3.0 0.00 0.00 0.00 69 1017.8
20260505222522 61 138 1.0 3.0 0.00 0.00 0.00 69 1017.6
20260505222027 62 110 0.0 3.0 0.00 0.00 0.00 69 1017.8
20260505221604 62 117 0.0 3.0 0.00 0.00 0.00 68 1018.0
20260505221017 62 122 1.0 3.0 0.00 0.00 0.00 69 1018.0
20260505220523 63 152 1.0 4.0 0.00 0.00 0.00 68 1018.0
20260505220108 62 131 1.0 3.0 0.00 0.00 0.00 70 1018.1
20260505215516 62 132 1.0 3.0 0.00 0.00 0.00 68 1018.1
20260505215015 62 75 0.0 4.0 0.00 0.00 0.00 67 1018.1
20260505214557 63 126 0.0 4.0 0.00 0.00 0.00 67 1018.1
20260505214029 64 133 1.0 4.0 0.00 0.00 0.00 68 1018.2
20260505213514 64 115 1.0 4.0 0.00 0.00 0.00 68 1018.2
20260505213052 64 119 1.0 4.0 0.00 0.00 0.00 69 1018.2
20260505212528 63 106 1.0 4.0 0.00 0.00 0.00 70 1018.1